TimeCST,TemperatureF,Dew PointF,Humidity,Sea Level PressureIn,VisibilityMPH,Wind Direction,Wind SpeedMPH,Gust SpeedMPH,PrecipitationIn,Events,Conditions,WindDirDegrees,DateUTC
12:43 AM,34.0,33.1,96,29.84,4.0,WSW,3.5,-,0.02,Rain,Light Rain,250,2013-12-21 06:43:00
12:54 AM,34.0,33.1,96,29.83,4.0,NW,5.8,-,0.02,Rain,Light Rain,310,2013-12-21 06:54:00
1:01 AM,34.0,33.1,96,29.83,4.0,NW,5.8,-,0.01,Rain,Light Rain,310,2013-12-21 07:01:00
1:34 AM,34.0,33.1,96,29.83,5.0,NW,6.9,-,0.01,,Overcast,310,2013-12-21 07:34:00
1:54 AM,34.0,33.1,96,29.83,5.0,WNW,5.8,-,0.01,,Overcast,300,2013-12-21 07:54:00
2:54 AM,34.0,33.1,96,29.85,4.0,Calm,Calm,-,0.02,Rain,Light Rain,0,2013-12-21 08:54:00
3:13 AM,34.0,33.1,96,29.84,2.5,WNW,4.6,-,0.06,Rain,Rain,300,2013-12-21 09:13:00
3:26 AM,34.0,33.1,96,29.81,3.0,NNW,4.6,-,0.09,Rain,Light Rain,340,2013-12-21 09:26:00
3:37 AM,34.0,33.1,96,29.78,5.0,NNE,5.8,-,0.10,Rain,Light Rain,20,2013-12-21 09:37:00
3:54 AM,34.0,33.1,96,29.78,5.0,NE,4.6,-,0.14,Rain,Rain,50,2013-12-21 09:54:00
4:48 AM,33.8,32.0,93,29.81,7.0,North,3.5,-,0.09,Rain,Light Rain,360,2013-12-21 10:48:00
4:54 AM,33.1,32.0,96,29.83,7.0,Calm,Calm,-,0.10,Rain,Light Rain,0,2013-12-21 10:54:00
5:46 AM,33.1,30.9,92,29.78,7.0,NNE,8.1,-,0.03,Rain,Light Rain,30,2013-12-21 11:46:00
5:52 AM,33.8,30.2,87,29.78,10.0,NE,9.2,-,0.03,Rain,Light Rain,40,2013-12-21 11:52:00
5:54 AM,33.1,30.9,92,29.78,10.0,NE,9.2,-,0.03,Rain,Light Rain,40,2013-12-21 11:54:00
6:14 AM,33.1,30.9,92,29.76,10.0,NNE,11.5,-,0.00,Rain,Light Rain,30,2013-12-21 12:14:00
6:52 AM,33.8,30.2,87,29.80,10.0,North,8.1,-,0.00,Rain,Light Rain,360,2013-12-21 12:52:00
6:54 AM,33.1,30.0,89,29.81,10.0,North,9.2,-,0.00,,Overcast,350,2013-12-21 12:54:00
7:04 AM,33.1,30.0,89,29.81,10.0,NNE,4.6,-,N/A,,Overcast,20,2013-12-21 13:04:00
7:54 AM,33.1,30.9,92,29.83,9.0,North,5.8,-,0.01,Rain,Light Rain,350,2013-12-21 13:54:00
8:54 AM,33.1,30.9,92,29.82,6.0,North,5.8,-,0.03,,Overcast,10,2013-12-21 14:54:00
9:28 AM,33.1,30.0,89,29.83,4.0,Calm,Calm,-,0.04,Rain,Light Rain,0,2013-12-21 15:28:00
9:49 AM,33.8,30.2,87,29.81,4.0,NE,6.9,-,0.07,Rain,Light Rain,40,2013-12-21 15:49:00
9:54 AM,33.1,30.0,89,29.83,4.0,NE,5.8,-,0.07,Rain,Light Rain,40,2013-12-21 15:54:00
10:15 AM,33.1,30.9,92,29.80,4.0,NE,4.6,-,0.02,Rain,Light Rain,50,2013-12-21 16:15:00
10:30 AM,33.1,30.9,92,29.79,5.0,NE,10.4,-,0.02,Rain,Light Rain,50,2013-12-21 16:30:00
10:52 AM,33.8,30.2,87,29.80,7.0,NE,6.9,-,0.03,Rain,Light Rain,50,2013-12-21 16:52:00
10:54 AM,33.1,30.0,89,29.81,7.0,NE,6.9,-,0.03,Rain,Light Rain,50,2013-12-21 16:54:00
11:54 AM,33.1,30.9,92,29.79,5.0,North,10.4,-,0.05,Rain,Light Rain,360,2013-12-21 17:54:00
12:54 PM,33.1,30.9,92,29.71,10.0,NNE,10.4,-,0.01,Rain,Light Rain,20,2013-12-21 18:54:00
1:54 PM,32.0,30.0,92,29.69,7.0,North,13.8,-,0.00,,Overcast,10,2013-12-21 19:54:00
2:10 PM,32.0,30.0,92,29.67,6.0,North,13.8,-,0.01,,Overcast,10,2013-12-21 20:10:00
2:54 PM,32.0,30.0,92,29.70,3.0,North,6.9,-,0.07,,Overcast,360,2013-12-21 20:54:00
3:54 PM,32.0,30.0,92,29.69,8.0,North,8.1,-,0.03,,Overcast,10,2013-12-21 21:54:00
4:54 PM,32.0,30.0,92,29.69,5.0,North,10.4,-,0.05,,Overcast,10,2013-12-21 22:54:00
5:12 PM,32.0,30.0,92,29.66,5.0,NNE,8.1,-,0.01,,Overcast,20,2013-12-21 23:12:00
5:54 PM,33.1,30.0,89,29.65,9.0,North,13.8,-,0.02,Rain,Light Rain,360,2013-12-21 23:54:00
6:54 PM,33.1,30.0,89,29.68,10.0,North,8.1,-,0.01,,Overcast,350,2013-12-22 00:54:00
7:54 PM,33.1,30.9,92,29.62,10.0,North,8.1,-,N/A,,Overcast,350,2013-12-22 01:54:00
8:54 PM,32.0,30.9,96,29.61,10.0,North,6.9,-,N/A,,Overcast,360,2013-12-22 02:54:00
9:54 PM,33.1,30.9,92,29.61,10.0,North,8.1,-,N/A,,Overcast,10,2013-12-22 03:54:00
10:54 PM,33.1,30.9,92,29.66,8.0,West,6.9,-,N/A,,Overcast,280,2013-12-22 04:54:00
11:16 PM,32.0,32.0,100,29.65,2.5,WNW,5.8,-,N/A,,Overcast,300,2013-12-22 05:16:00
11:38 PM,32.0,32.0,100,29.64,3.0,West,5.8,-,N/A,,Overcast,280,2013-12-22 05:38:00
11:54 PM,32.0,32.0,100,29.66,4.0,West,8.1,-,N/A,,Overcast,260,2013-12-22 05:54:00